Cape Girardeau, MO

11:34 PM CDT on August 20, 2019 (GMT -0500)
Cape Girardeau Regional

Weather History for KCGI - July, 2019

Change the Weather History Date:

Monday, July 22, 2019

  Actual Average Record
Temperature  
Mean Temperature 75 °F 79 °F  
Max Temperature 79 °F 89 °F 102 °F (1983)
Min Temperature 70 °F 68 °F 53 °F (1970)
Degree Days  
Heating Degree Days 0 0  
Month to date heating degree days 0 0  
Since 1 June heating degree days 0 4  
Since 1 July heating degree days 0 0  
Cooling Degree Days 10 14  
Month to date cooling degree days 360 305  
Year to date cooling degree days 873 769  
Since 1 June cooling degree days 654 617  
Growing Degree Days 25 (Base 50)    
Moisture  
Dew Point 69 °F    
Average Humidity 74    
Maximum Humidity 93    
Minimum Humidity 54    
Precipitation  
Precipitation 0.59 in 0.11 in 2.25 in (1969)
Month to date precipitation 6.45 2.39  
Year to date precipitation 41.72 27.06  
Sea Level Pressure  
Sea Level Pressure 29.94 in    
Wind  
Wind Speed 8 mph (North)    
Max Wind Speed 21 mph    
Max Gust Speed 27 mph    
Visibility 8 miles    
Events Rain , Thunderstorm    
T = Trace of Precipitation, MM = Missing Value Source: NWS Daily Summary

Daily Weather History Graph

Daily Weather History Graph

Search for Another Location

Airport or City:

Astronomy

Jul. 22, 2019 Rise Set
Actual Time 5:54 AM CDT 8:14 PM CDT
Civil Twilight 5:25 AM CDT 8:43 PM CDT
Nautical Twilight 4:48 AM CDT 9:20 PM CDT
Astronomical Twilight 4:08 AM CDT 9:59 PM CDT
Moon 11:41 PM CDT (7/22) 11:05 AM CDT (7/22)
Length of Visible Light 15h 18m
Length of Day
14h 19m
Waning Gibbous, 72% of the Moon is Illuminated
Jul 22
Waning Gibbous
Jul 24
Last Quarter
Jul 31
New
Aug 7
First Quarter
Aug 15
Full

Hourly Weather History & Observations

Time (CDT) Temp. Dew Point Humidity Pressure Visibility Wind Dir Wind Speed Gust Speed Precip Events Conditions
12:10 AM 75.0 °F 71.1 °F 87% 29.91 in 2.5 mi SSW 15.0 mph 31.1 mph 0.16 in Rain , Thunderstorm Rain
12:53 AM 75.0 °F 70.0 °F 84% 29.92 in 10.0 mi Calm Calm - 0.16 in   Mostly Cloudy
1:53 AM 75.0 °F 70.0 °F 84% 29.91 in 10.0 mi West 5.8 mph - N/A   Partly Cloudy
2:53 AM 73.9 °F 71.1 °F 91% 29.89 in 8.0 mi West 5.8 mph - 0.02 in Rain Light Rain
3:06 AM 73.9 °F 71.1 °F 91% 29.89 in 10.0 mi West 5.8 mph - 0.01 in Rain , Thunderstorm Light Rain
3:35 AM 73.9 °F 71.1 °F 91% 29.90 in 8.0 mi WSW 6.9 mph - 0.03 in Rain Light Rain
3:53 AM 73.9 °F 71.1 °F 91% 29.87 in 6.0 mi Calm Calm - 0.07 in Rain Light Rain
4:53 AM 73.0 °F 71.1 °F 93% 29.87 in 10.0 mi SE 4.6 mph - 0.01 in   Clear
5:53 AM 73.0 °F 70.0 °F 90% 29.87 in 10.0 mi SSE 3.5 mph - N/A   Clear
6:32 AM 73.9 °F 71.1 °F 91% 29.91 in 10.0 mi NNW 8.1 mph - N/A   Mostly Cloudy
6:53 AM 73.9 °F 71.1 °F 91% 29.91 in 10.0 mi NW 5.8 mph - N/A   Mostly Cloudy
7:53 AM 75.0 °F 72.0 °F 90% 29.91 in 10.0 mi Calm Calm - 0.00 in Rain Light Rain
8:11 AM 75.0 °F 72.0 °F 90% 29.93 in 10.0 mi West 9.2 mph - 0.00 in   Overcast
8:17 AM 75.0 °F 72.0 °F 90% 29.94 in 1.5 mi West 5.8 mph - 0.07 in Rain Rain
8:31 AM 75.0 °F 72.0 °F 90% 29.93 in 3.0 mi Variable 3.5 mph - 0.14 in Rain Light Rain
8:53 AM 75.0 °F 71.1 °F 87% 29.93 in 10.0 mi South 3.5 mph - 0.14 in   Overcast
9:53 AM 78.1 °F 73.0 °F 84% 29.91 in 10.0 mi North 12.7 mph - 0.00 in   Overcast
10:39 AM 77.0 °F 73.0 °F 88% 29.93 in 2.5 mi North 11.5 mph - 0.04 in Rain Heavy Rain
10:51 AM 75.2 °F 71.6 °F 89% 29.94 in 1.8 mi North 10.4 mph 21.9 mph 0.11 in Rain Heavy Rain
10:53 AM 75.0 °F 72.0 °F 90% 29.93 in 1.5 mi North 10.4 mph 21.9 mph 0.14 in Rain Heavy Rain
11:06 AM 73.9 °F 71.1 °F 91% 29.95 in 1.2 mi NNE 10.4 mph - 0.11 in Rain Heavy Rain
11:18 AM 73.9 °F 70.0 °F 87% 29.95 in 3.0 mi NNE 9.2 mph - 0.15 in Rain Light Rain
11:53 AM 75.0 °F 71.1 °F 87% 29.93 in 10.0 mi ENE 10.4 mph - 0.15 in   Overcast
12:40 PM 75.9 °F 71.1 °F 85% 29.94 in 10.0 mi NE 10.4 mph - 0.01 in   Mostly Cloudy
12:53 PM 75.9 °F 71.1 °F 85% 29.93 in 10.0 mi ENE 13.8 mph - 0.01 in   Overcast
1:24 PM 75.0 °F 71.1 °F 87% 29.95 in 4.0 mi NNE 8.1 mph - 0.01 in Rain Light Rain
1:33 PM 75.0 °F 71.1 °F 87% 29.95 in 1.8 mi North 10.4 mph 21.9 mph 0.04 in Rain Heavy Rain
1:40 PM 73.9 °F 71.1 °F 91% 29.96 in 2.0 mi North 17.3 mph 23.0 mph 0.05 in Rain Rain
1:48 PM 73.4 °F 69.8 °F 88% 29.96 in 7.0 mi North 15.0 mph - 0.05 in Rain Light Rain
1:53 PM 73.9 °F 70.0 °F 87% 29.96 in 10.0 mi North 13.8 mph - 0.05 in Rain Light Rain
1:56 PM 73.9 °F 70.0 °F 87% 29.97 in 10.0 mi North 16.1 mph - 0.00 in Rain Light Rain
1:58 PM 73.9 °F 70.0 °F 87% 29.97 in 10.0 mi North 13.8 mph - 0.00 in   Overcast
2:20 PM 75.9 °F 68.0 °F 76% 29.97 in 10.0 mi NNE 18.4 mph 27.6 mph 0.00 in   Overcast
2:53 PM 77.0 °F 66.9 °F 71% 29.97 in 10.0 mi North 16.1 mph 26.5 mph 0.00 in   Overcast
3:35 PM 79.0 °F 66.0 °F 64% 29.97 in 10.0 mi NNE 19.6 mph 27.6 mph N/A   Mostly Cloudy
4:53 PM 77.0 °F 64.9 °F 66% 29.97 in 10.0 mi NNE 15.0 mph - N/A   Overcast
5:53 PM 79.0 °F 63.0 °F 58% 29.97 in 10.0 mi North 15.0 mph - N/A   Clear
6:53 PM 78.1 °F 61.0 °F 56% 29.98 in 10.0 mi NNE 10.4 mph - N/A   Clear
7:53 PM 75.9 °F 64.0 °F 67% 29.99 in 10.0 mi North 8.1 mph - N/A   Clear
8:53 PM 73.0 °F 64.0 °F 73% 30.00 in 10.0 mi North 6.9 mph - N/A   Clear
9:53 PM 73.0 °F 64.0 °F 73% 30.02 in 10.0 mi North 6.9 mph - N/A   Clear
10:53 PM 71.1 °F 64.0 °F 78% 30.03 in 10.0 mi NNE 4.6 mph - N/A   Clear
11:53 PM 71.1 °F 64.0 °F 78% 30.04 in 10.0 mi NNE 6.9 mph - N/A   Clear